Time,TemperatureF,DewpointF,PressureIn,WindDirection,WindDirectionDegrees,WindSpeedMPH,WindSpeedGustMPH,Humidity,HourlyPrecipIn,Conditions,Clouds,dailyrainin,SolarRadiationWatts/m^2,SoftwareType,DateUTC
2013-01-08 00:02:00,31.5,14.0,29.82,North,355,3.0,15.0,48,0.00,,,0.00,0.0,meteohub,2013-01-08 07:02:00,
2013-01-08 00:07:00,31.1,13.6,29.82,North,0,5.0,15.0,48,0.00,,,0.00,0.0,meteohub,2013-01-08 07:07:00,
2013-01-08 00:12:00,30.9,13.5,29.82,NNE,22,7.0,15.0,48,0.00,,,0.00,0.0,meteohub,2013-01-08 07:12:00,
2013-01-08 00:17:00,30.7,13.8,29.82,NNE,18,7.0,14.0,49,0.00,,,0.00,0.0,meteohub,2013-01-08 07:17:00,
2013-01-08 00:22:00,30.6,14.2,29.82,NNE,22,11.0,14.0,50,0.00,,,0.00,0.0,meteohub,2013-01-08 07:22:00,
2013-01-08 00:27:00,30.6,14.5,29.82,NNW,331,9.0,14.0,51,0.00,,,0.00,0.0,meteohub,2013-01-08 07:27:00,
2013-01-08 00:32:00,30.4,15.3,29.82,NNE,23,16.0,16.0,53,0.00,,,0.00,0.0,meteohub,2013-01-08 07:32:00,
2013-01-08 00:37:00,30.2,15.6,29.83,NE,55,7.0,17.0,54,0.00,,,0.00,0.0,meteohub,2013-01-08 07:37:00,
2013-01-08 00:42:00,30.0,16.2,29.83,North,0,6.0,17.0,56,0.00,,,0.00,0.0,meteohub,2013-01-08 07:42:00,
2013-01-08 00:47:00,29.8,16.5,29.82,NNE,26,11.0,17.0,57,0.00,,,0.00,0.0,meteohub,2013-01-08 07:47:00,
2013-01-08 00:52:00,29.8,16.5,29.82,NNE,25,8.0,16.0,57,0.00,,,0.00,0.0,meteohub,2013-01-08 07:52:00,
2013-01-08 00:57:00,29.8,16.9,29.82,North,11,7.0,16.0,58,0.00,,,0.00,0.0,meteohub,2013-01-08 07:57:00,
2013-01-08 01:02:00,29.8,16.9,29.83,North,11,9.0,16.0,58,0.00,,,0.00,0.0,meteohub,2013-01-08 08:02:00,
2013-01-08 01:07:00,29.7,16.7,29.83,NNE,28,9.0,16.0,58,0.00,,,0.00,0.0,meteohub,2013-01-08 08:07:00,
2013-01-08 01:12:00,29.7,16.7,29.83,NNE,27,10.0,14.0,58,0.00,,,0.00,0.0,meteohub,2013-01-08 08:12:00,
2013-01-08 01:17:00,29.3,16.7,29.83,NNE,24,9.0,14.0,59,0.00,,,0.00,0.0,meteohub,2013-01-08 08:17:00,
2013-01-08 01:22:00,28.9,16.3,29.83,NNE,29,5.0,13.0,59,0.00,,,0.00,0.0,meteohub,2013-01-08 08:22:00,
2013-01-08 01:27:00,28.8,16.2,29.84,ENE,70,8.0,12.0,59,0.00,,,0.00,0.0,meteohub,2013-01-08 08:27:00,
2013-01-08 01:32:00,28.8,16.7,29.84,NNE,25,4.0,12.0,60,0.00,,,0.00,0.0,meteohub,2013-01-08 08:32:00,
2013-01-08 01:37:00,28.6,16.5,29.84,NE,36,7.0,12.0,60,0.00,,,0.00,0.0,meteohub,2013-01-08 08:37:00,
2013-01-08 01:42:00,28.4,16.7,29.84,NNE,16,4.0,10.0,61,0.00,,,0.00,0.0,meteohub,2013-01-08 08:42:00,
2013-01-08 01:47:00,28.2,16.5,29.84,NE,34,4.0,10.0,61,0.00,,,0.00,0.0,meteohub,2013-01-08 08:47:00,
2013-01-08 01:52:00,28.2,16.5,29.84,ENE,73,3.0,11.0,61,0.00,,,0.00,0.0,meteohub,2013-01-08 08:52:00,
2013-01-08 01:57:00,28.2,16.5,29.84,NE,50,4.0,11.0,61,0.00,,,0.00,0.0,meteohub,2013-01-08 08:57:00,
2013-01-08 02:02:00,28.0,16.3,29.84,NE,50,7.0,11.0,61,0.00,,,0.00,0.0,meteohub,2013-01-08 09:02:00,
2013-01-08 02:07:00,28.0,16.3,29.83,NNE,32,4.0,11.0,61,0.00,,,0.00,0.0,meteohub,2013-01-08 09:07:00,
2013-01-08 02:12:00,27.9,16.2,29.83,NNE,33,7.0,11.0,61,0.00,,,0.00,0.0,meteohub,2013-01-08 09:12:00,
2013-01-08 02:17:00,27.9,16.2,29.83,NNE,29,7.0,11.0,61,0.00,,,0.00,0.0,meteohub,2013-01-08 09:17:00,
2013-01-08 02:22:00,27.9,16.5,29.83,NE,36,3.0,11.0,62,0.00,,,0.00,0.0,meteohub,2013-01-08 09:22:00,
2013-01-08 02:27:00,27.7,16.3,29.83,NNE,28,6.0,11.0,62,0.00,,,0.00,0.0,meteohub,2013-01-08 09:27:00,
2013-01-08 02:32:00,27.3,16.0,29.83,NNE,23,5.0,10.0,62,0.00,,,0.00,0.0,meteohub,2013-01-08 09:32:00,
2013-01-08 02:37:00,27.1,15.8,29.83,NNE,20,5.0,10.0,62,0.00,,,0.00,0.0,meteohub,2013-01-08 09:37:00,
2013-01-08 02:42:00,26.8,15.4,29.83,NNE,18,6.0,9.0,62,0.00,,,0.00,0.0,meteohub,2013-01-08 09:42:00,
2013-01-08 02:47:00,26.4,15.1,29.83,North,0,6.0,11.0,62,0.00,,,0.00,0.0,meteohub,2013-01-08 09:47:00,
2013-01-08 02:52:00,26.2,15.1,29.83,NE,36,9.0,11.0,62,0.00,,,0.00,0.0,meteohub,2013-01-08 09:52:00,
2013-01-08 02:57:00,26.1,15.3,29.83,NNW,340,5.0,11.0,63,0.00,,,0.00,0.0,meteohub,2013-01-08 09:57:00,
2013-01-08 03:02:00,25.7,14.9,29.82,NNE,26,5.0,12.0,63,0.00,,,0.00,0.0,meteohub,2013-01-08 10:02:00,
2013-01-08 03:07:00,25.5,14.4,29.82,NE,38,4.0,13.0,62,0.00,,,0.00,0.0,meteohub,2013-01-08 10:07:00,
2013-01-08 03:12:00,25.3,13.8,29.83,NE,41,4.0,13.0,61,0.00,,,0.00,0.0,meteohub,2013-01-08 10:12:00,
2013-01-08 03:17:00,25.2,13.3,29.82,NE,39,3.0,13.0,60,0.00,,,0.00,0.0,meteohub,2013-01-08 10:17:00,
2013-01-08 03:22:00,25.2,12.9,29.82,NE,47,2.0,9.0,59,0.00,,,0.00,0.0,meteohub,2013-01-08 10:22:00,
2013-01-08 03:27:00,25.0,12.4,29.82,ENE,66,3.0,8.0,58,0.00,,,0.00,0.0,meteohub,2013-01-08 10:27:00,
2013-01-08 03:32:00,25.0,11.8,29.82,ENE,65,2.0,8.0,57,0.00,,,0.00,0.0,meteohub,2013-01-08 10:32:00,
2013-01-08 03:37:00,24.8,11.7,29.81,ENE,65,0.0,8.0,57,0.00,,,0.00,0.0,meteohub,2013-01-08 10:37:00,
2013-01-08 03:42:00,24.6,11.5,29.82,NNW,329,4.0,5.0,57,0.00,,,0.00,0.0,meteohub,2013-01-08 10:42:00,
2013-01-08 03:47:00,24.4,10.9,29.82,North,355,3.0,6.0,56,0.00,,,0.00,0.0,meteohub,2013-01-08 10:47:00,
2013-01-08 03:52:00,24.4,10.9,29.82,North,355,4.0,8.0,56,0.00,,,0.00,0.0,meteohub,2013-01-08 10:52:00,
2013-01-08 03:57:00,24.4,10.9,29.82,NNE,14,3.0,8.0,56,0.00,,,0.00,0.0,meteohub,2013-01-08 10:57:00,
2013-01-08 04:02:00,24.3,10.8,29.82,NNE,28,3.0,8.0,56,0.00,,,0.00,0.0,meteohub,2013-01-08 11:02:00,
2013-01-08 04:07:00,24.3,10.4,29.83,NE,34,3.0,7.0,55,0.00,,,0.00,0.0,meteohub,2013-01-08 11:07:00,
2013-01-08 04:12:00,24.1,10.2,29.83,NNE,26,7.0,7.0,55,0.00,,,0.00,0.0,meteohub,2013-01-08 11:12:00,
2013-01-08 04:17:00,24.1,10.2,29.83,NNE,26,7.0,8.0,55,0.00,,,0.00,0.0,meteohub,2013-01-08 11:17:00,
2013-01-08 04:22:00,24.4,10.2,29.83,North,11,10.0,11.0,54,0.00,,,0.00,0.0,meteohub,2013-01-08 11:22:00,
2013-01-08 04:27:00,24.8,10.0,29.83,NE,41,6.0,14.0,53,0.00,,,0.00,0.0,meteohub,2013-01-08 11:27:00,
2013-01-08 04:32:00,25.2,10.4,29.84,NE,41,6.0,14.0,53,0.00,,,0.00,0.0,meteohub,2013-01-08 11:32:00,
2013-01-08 04:37:00,25.5,10.4,29.84,NNE,24,5.0,14.0,52,0.00,,,0.00,0.0,meteohub,2013-01-08 11:37:00,
2013-01-08 04:42:00,25.7,10.9,29.84,NNE,24,4.0,12.0,53,0.00,,,0.00,0.0,meteohub,2013-01-08 11:42:00,
2013-01-08 04:47:00,25.9,11.1,29.83,NNE,30,7.0,11.0,53,0.00,,,0.00,0.0,meteohub,2013-01-08 11:47:00,
2013-01-08 04:52:00,25.9,11.1,29.83,NE,36,7.0,11.0,53,0.00,,,0.00,0.0,meteohub,2013-01-08 11:52:00,
2013-01-08 04:57:00,25.9,11.1,29.84,NE,44,7.0,11.0,53,0.00,,,0.00,0.0,meteohub,2013-01-08 11:57:00,
2013-01-08 05:02:00,25.9,11.1,29.84,NE,55,4.0,11.0,53,0.00,,,0.00,0.0,meteohub,2013-01-08 12:02:00,
2013-01-08 05:07:00,26.1,11.3,29.83,NE,47,7.0,11.0,53,0.00,,,0.00,0.0,meteohub,2013-01-08 12:07:00,
2013-01-08 05:12:00,26.2,11.5,29.84,NE,35,4.0,11.0,53,0.00,,,0.00,0.0,meteohub,2013-01-08 12:12:00,
2013-01-08 05:17:00,26.2,10.9,29.84,NE,53,6.0,11.0,52,0.00,,,0.00,0.0,meteohub,2013-01-08 12:17:00,
2013-01-08 05:22:00,26.4,11.1,29.84,NNE,24,7.0,11.0,52,0.00,,,0.00,0.0,meteohub,2013-01-08 12:22:00,
2013-01-08 05:27:00,26.8,11.1,29.85,NE,42,5.0,10.0,51,0.00,,,0.00,0.0,meteohub,2013-01-08 12:27:00,
2013-01-08 05:32:00,26.8,11.1,29.85,ENE,72,5.0,10.0,51,0.00,,,0.00,0.0,meteohub,2013-01-08 12:32:00,
2013-01-08 05:37:00,26.8,11.5,29.85,East,84,8.0,10.0,52,0.00,,,0.00,0.0,meteohub,2013-01-08 12:37:00,
2013-01-08 05:42:00,27.0,11.3,29.85,NE,53,6.0,8.0,51,0.00,,,0.00,0.0,meteohub,2013-01-08 12:42:00,
2013-01-08 05:47:00,27.1,10.9,29.85,ENE,58,8.0,9.0,50,0.00,,,0.00,0.0,meteohub,2013-01-08 12:47:00,
2013-01-08 05:52:00,27.0,10.4,29.85,NE,45,3.0,9.0,49,0.00,,,0.00,0.0,meteohub,2013-01-08 12:52:00,
2013-01-08 05:57:00,27.0,10.8,29.85,NE,48,3.0,9.0,50,0.00,,,0.00,0.0,meteohub,2013-01-08 12:57:00,
2013-01-08 06:02:00,27.0,11.3,29.85,ENE,69,3.0,9.0,51,0.00,,,0.00,0.0,meteohub,2013-01-08 13:02:00,
2013-01-08 06:07:00,26.4,11.1,29.85,NE,53,4.0,9.0,52,0.00,,,0.00,0.0,meteohub,2013-01-08 13:07:00,
2013-01-08 06:12:00,26.4,12.0,29.86,NE,46,6.0,8.0,54,0.00,,,0.00,0.0,meteohub,2013-01-08 13:12:00,
2013-01-08 06:17:00,26.4,12.0,29.86,NE,44,4.0,8.0,54,0.00,,,0.00,0.0,meteohub,2013-01-08 13:17:00,
2013-01-08 06:22:00,26.4,12.4,29.86,NE,46,5.0,9.0,55,0.00,,,0.00,0.0,meteohub,2013-01-08 13:22:00,
2013-01-08 06:27:00,26.4,12.4,29.87,NNE,26,7.0,9.0,55,0.00,,,0.00,0.0,meteohub,2013-01-08 13:27:00,
2013-01-08 06:32:00,26.4,12.0,29.87,NE,36,6.0,8.0,54,0.00,,,0.00,0.0,meteohub,2013-01-08 13:32:00,
2013-01-08 06:37:00,26.6,12.2,29.87,ENE,58,7.0,9.0,54,0.00,,,0.00,0.0,meteohub,2013-01-08 13:37:00,
2013-01-08 06:42:00,26.4,12.0,29.87,NNE,26,4.0,10.0,54,0.00,,,0.00,0.0,meteohub,2013-01-08 13:42:00,
2013-01-08 06:47:00,26.4,12.0,29.87,NE,42,5.0,10.0,54,0.00,,,0.00,0.0,meteohub,2013-01-08 13:47:00,
2013-01-08 06:52:00,26.2,10.9,29.87,NNE,28,7.0,9.0,52,0.00,,,0.00,0.0,meteohub,2013-01-08 13:52:00,
2013-01-08 06:57:00,26.2,12.2,29.86,ENE,69,8.0,10.0,55,0.00,,,0.00,0.0,meteohub,2013-01-08 13:57:00,
2013-01-08 07:02:00,26.1,12.0,29.87,ENE,69,8.0,10.0,55,0.00,,,0.00,0.0,meteohub,2013-01-08 14:02:00,
2013-01-08 07:07:00,26.1,11.3,29.87,NE,40,9.0,10.0,53,0.00,,,0.00,0.0,meteohub,2013-01-08 14:07:00,
2013-01-08 07:12:00,26.1,10.8,29.88,NNE,13,6.0,12.0,52,0.00,,,0.00,0.0,meteohub,2013-01-08 14:12:00,
2013-01-08 07:17:00,25.9,10.8,29.88,NNE,13,6.0,13.0,52,0.00,,,0.00,0.0,meteohub,2013-01-08 14:17:00,
2013-01-08 07:22:00,25.5,10.4,29.88,NE,35,4.0,14.0,52,0.00,,,0.00,7.0,meteohub,2013-01-08 14:22:00,
2013-01-08 07:27:00,25.2,10.0,29.89,NE,38,10.0,14.0,52,0.00,,,0.00,9.0,meteohub,2013-01-08 14:27:00,
2013-01-08 07:32:00,25.2,10.0,29.89,NNE,27,5.0,13.0,52,0.00,,,0.00,11.0,meteohub,2013-01-08 14:32:00,
2013-01-08 07:37:00,25.3,10.2,29.89,ENE,61,5.0,13.0,52,0.00,,,0.00,12.0,meteohub,2013-01-08 14:37:00,
2013-01-08 07:42:00,26.1,10.4,29.89,NE,37,5.0,12.0,51,0.00,,,0.00,14.0,meteohub,2013-01-08 14:42:00,
2013-01-08 07:47:00,26.2,10.2,29.89,NNE,30,4.0,12.0,50,0.00,,,0.00,18.0,meteohub,2013-01-08 14:47:00,
2013-01-08 07:52:00,26.1,9.5,29.89,North,11,5.0,8.0,49,0.00,,,0.00,39.0,meteohub,2013-01-08 14:52:00,
2013-01-08 08:02:00,26.4,9.9,29.90,NE,51,4.0,8.0,49,0.00,,,0.00,49.0,meteohub,2013-01-08 15:02:00,
2013-01-08 08:07:00,26.1,9.1,29.91,ENE,59,9.0,15.0,48,0.00,,,0.00,62.0,meteohub,2013-01-08 15:07:00,
2013-01-08 08:12:00,25.9,9.3,29.91,NE,41,7.0,15.0,49,0.00,,,0.00,77.0,meteohub,2013-01-08 15:12:00,
2013-01-08 08:17:00,26.1,9.5,29.92,NE,49,7.0,15.0,49,0.00,,,0.00,151.0,meteohub,2013-01-08 15:17:00,
2013-01-08 08:22:00,27.1,11.5,29.92,North,5,9.0,14.0,51,0.00,,,0.00,179.0,meteohub,2013-01-08 15:22:00,
2013-01-08 08:27:00,28.6,12.4,29.92,North,0,3.0,13.0,50,0.00,,,0.00,195.0,meteohub,2013-01-08 15:27:00,
2013-01-08 08:32:00,28.6,11.3,29.92,North,355,7.0,13.0,48,0.00,,,0.00,211.0,meteohub,2013-01-08 15:32:00,
2013-01-08 08:37:00,28.8,10.6,29.92,NNE,22,7.0,13.0,46,0.00,,,0.00,227.0,meteohub,2013-01-08 15:37:00,
2013-01-08 08:42:00,29.3,10.0,29.92,NE,37,5.0,11.0,44,0.00,,,0.00,243.0,meteohub,2013-01-08 15:42:00,
2013-01-08 08:47:00,30.0,10.2,29.93,NNE,30,3.0,11.0,43,0.00,,,0.00,257.0,meteohub,2013-01-08 15:47:00,
2013-01-08 08:52:00,30.7,10.4,29.93,NE,34,4.0,11.0,42,0.00,,,0.00,271.0,meteohub,2013-01-08 15:52:00,
2013-01-08 08:57:00,31.3,10.2,29.93,NE,50,3.0,11.0,41,0.00,,,0.00,283.0,meteohub,2013-01-08 15:57:00,
2013-01-08 09:02:00,32.2,11.1,29.92,North,351,2.0,11.0,41,0.00,,,0.00,299.0,meteohub,2013-01-08 16:02:00,
2013-01-08 09:07:00,33.3,11.5,29.92,North,11,6.0,10.0,40,0.00,,,0.00,313.0,meteohub,2013-01-08 16:07:00,
2013-01-08 09:12:00,33.6,11.3,29.92,North,355,6.0,8.0,39,0.00,,,0.00,327.0,meteohub,2013-01-08 16:12:00,
2013-01-08 09:17:00,34.0,12.2,29.92,North,0,6.0,12.0,40,0.00,,,0.00,339.0,meteohub,2013-01-08 16:17:00,
2013-01-08 09:22:00,34.5,12.7,29.92,North,355,11.0,12.0,40,0.00,,,0.00,353.0,meteohub,2013-01-08 16:22:00,
2013-01-08 09:27:00,34.5,12.7,29.93,NNW,335,4.0,13.0,40,0.00,,,0.00,366.0,meteohub,2013-01-08 16:27:00,
2013-01-08 09:32:00,34.3,12.6,29.93,NNE,23,6.0,15.0,40,0.00,,,0.00,376.0,meteohub,2013-01-08 16:32:00,
2013-01-08 09:37:00,34.2,12.4,29.93,NNW,342,5.0,15.0,40,0.00,,,0.00,390.0,meteohub,2013-01-08 16:37:00,
2013-01-08 09:42:00,34.2,11.8,29.93,North,5,8.0,15.0,39,0.00,,,0.00,403.0,meteohub,2013-01-08 16:42:00,
2013-01-08 09:47:00,33.8,10.9,29.93,North,355,6.0,14.0,38,0.00,,,0.00,415.0,meteohub,2013-01-08 16:47:00,
2013-01-08 09:52:00,33.6,10.8,29.93,NNE,15,5.0,12.0,38,0.00,,,0.00,425.0,meteohub,2013-01-08 16:52:00,
2013-01-08 09:57:00,33.3,10.4,29.93,NNW,337,9.0,12.0,38,0.00,,,0.00,436.0,meteohub,2013-01-08 16:57:00,
2013-01-08 10:02:00,33.3,10.4,29.93,NNW,348,5.0,14.0,38,0.00,,,0.00,445.0,meteohub,2013-01-08 17:02:00,
2013-01-08 10:07:00,33.6,10.8,29.93,North,355,7.0,14.0,38,0.00,,,0.00,455.0,meteohub,2013-01-08 17:07:00,
2013-01-08 10:12:00,33.6,10.0,29.93,NNW,342,6.0,12.0,37,0.00,,,0.00,466.0,meteohub,2013-01-08 17:12:00,
2013-01-08 10:17:00,34.2,10.0,29.93,North,9,12.0,12.0,36,0.00,,,0.00,475.0,meteohub,2013-01-08 17:17:00,
2013-01-08 10:22:00,34.2,10.0,29.93,North,5,8.0,13.0,36,0.00,,,0.00,483.0,meteohub,2013-01-08 17:22:00,
2013-01-08 10:32:00,34.3,11.3,29.93,NNW,344,7.0,15.0,38,0.00,,,0.00,501.0,meteohub,2013-01-08 17:32:00,
2013-01-08 10:37:00,34.5,12.0,29.93,North,355,13.0,15.0,39,0.00,,,0.00,506.0,meteohub,2013-01-08 17:37:00,
2013-01-08 10:42:00,34.5,12.0,29.93,NNW,334,9.0,17.0,39,0.00,,,0.00,515.0,meteohub,2013-01-08 17:42:00,
2013-01-08 10:47:00,34.7,12.2,29.92,NNE,13,6.0,17.0,39,0.00,,,0.00,520.0,meteohub,2013-01-08 17:47:00,
2013-01-08 10:52:00,34.9,11.8,29.92,North,5,12.0,17.0,38,0.00,,,0.00,529.0,meteohub,2013-01-08 17:52:00,
2013-01-08 10:57:00,35.2,11.5,29.92,NNE,26,7.0,16.0,37,0.00,,,0.00,534.0,meteohub,2013-01-08 17:57:00,
2013-01-08 11:02:00,35.6,11.3,29.92,North,355,11.0,16.0,36,0.00,,,0.00,540.0,meteohub,2013-01-08 18:02:00,
2013-01-08 11:07:00,35.8,11.5,29.92,NNW,338,7.0,14.0,36,0.00,,,0.00,547.0,meteohub,2013-01-08 18:07:00,
2013-01-08 11:17:00,36.1,11.1,29.92,NNW,331,7.0,15.0,35,0.00,,,0.00,554.0,meteohub,2013-01-08 18:17:00,
2013-01-08 11:22:00,36.5,10.0,29.92,NE,45,12.0,15.0,33,0.00,,,0.00,559.0,meteohub,2013-01-08 18:22:00,
2013-01-08 11:27:00,36.7,10.9,29.92,NNE,15,8.0,15.0,34,0.00,,,0.00,563.0,meteohub,2013-01-08 18:27:00,
2013-01-08 11:32:00,37.0,9.9,29.91,NE,40,5.0,15.0,32,0.00,,,0.00,566.0,meteohub,2013-01-08 18:32:00,
2013-01-08 11:37:00,37.0,10.6,29.91,NNE,15,8.0,14.0,33,0.00,,,0.00,570.0,meteohub,2013-01-08 18:37:00,
2013-01-08 11:42:00,37.6,9.7,29.91,North,355,5.0,14.0,31,0.00,,,0.00,573.0,meteohub,2013-01-08 18:42:00,
2013-01-08 11:47:00,37.6,10.4,29.91,NE,42,5.0,14.0,32,0.00,,,0.00,575.0,meteohub,2013-01-08 18:47:00,
2013-01-08 11:52:00,38.5,11.1,29.91,NE,44,9.0,13.0,32,0.00,,,0.00,575.0,meteohub,2013-01-08 18:52:00,
2013-01-08 11:57:00,38.8,10.0,29.91,NNE,13,6.0,13.0,30,0.00,,,0.00,577.0,meteohub,2013-01-08 18:57:00,
2013-01-08 12:02:00,39.2,11.1,29.91,NE,47,5.0,13.0,31,0.00,,,0.00,578.0,meteohub,2013-01-08 19:02:00,
2013-01-08 12:07:00,39.6,11.5,29.90,NE,46,8.0,11.0,31,0.00,,,0.00,578.0,meteohub,2013-01-08 19:07:00,
2013-01-08 12:12:00,39.7,11.5,29.90,NNE,21,7.0,11.0,31,0.00,,,0.00,577.0,meteohub,2013-01-08 19:12:00,
2013-01-08 12:17:00,39.9,11.7,29.90,ENE,65,7.0,12.0,31,0.00,,,0.00,577.0,meteohub,2013-01-08 19:17:00,
2013-01-08 12:22:00,40.6,12.4,29.89,ENE,59,5.0,12.0,31,0.00,,,0.00,575.0,meteohub,2013-01-08 19:22:00,
2013-01-08 12:27:00,40.5,12.9,29.89,ENE,59,7.0,12.0,32,0.00,,,0.00,577.0,meteohub,2013-01-08 19:27:00,
2013-01-08 12:32:00,41.4,12.9,29.88,NNW,337,5.0,11.0,31,0.00,,,0.00,577.0,meteohub,2013-01-08 19:32:00,
2013-01-08 12:37:00,41.7,13.3,29.88,North,355,4.0,11.0,31,0.00,,,0.00,575.0,meteohub,2013-01-08 19:37:00,
2013-01-08 12:42:00,42.3,13.1,29.88,NNW,346,6.0,11.0,30,0.00,,,0.00,575.0,meteohub,2013-01-08 19:42:00,
2013-01-08 12:47:00,42.3,13.1,29.88,NNE,28,3.0,12.0,30,0.00,,,0.00,568.0,meteohub,2013-01-08 19:47:00,
2013-01-08 12:52:00,43.0,12.9,29.87,NNW,342,5.0,12.0,29,0.00,,,0.00,534.0,meteohub,2013-01-08 19:52:00,
2013-01-08 12:57:00,43.3,12.4,29.87,North,349,6.0,11.0,28,0.00,,,0.00,559.0,meteohub,2013-01-08 19:57:00,
2013-01-08 13:02:00,43.3,12.4,29.87,NE,47,9.0,11.0,28,0.00,,,0.00,555.0,meteohub,2013-01-08 20:02:00,
2013-01-08 13:07:00,43.5,12.6,29.87,North,349,3.0,11.0,28,0.00,,,0.00,559.0,meteohub,2013-01-08 20:07:00,
2013-01-08 13:12:00,43.9,12.0,29.87,NNE,20,4.0,11.0,27,0.00,,,0.00,483.0,meteohub,2013-01-08 20:12:00,
2013-01-08 13:17:00,44.4,12.6,29.87,NE,37,4.0,11.0,27,0.00,,,0.00,512.0,meteohub,2013-01-08 20:17:00,
2013-01-08 13:22:00,44.2,12.4,29.87,NW,326,7.0,11.0,27,0.00,,,0.00,494.0,meteohub,2013-01-08 20:22:00,
2013-01-08 13:27:00,44.8,12.0,29.88,North,0,8.0,11.0,26,0.00,,,0.00,459.0,meteohub,2013-01-08 20:27:00,
2013-01-08 13:37:00,45.3,11.5,29.88,North,351,9.0,15.0,25,0.00,,,0.00,527.0,meteohub,2013-01-08 20:37:00,
2013-01-08 13:47:00,46.2,11.5,29.88,NW,314,7.0,14.0,24,0.00,,,0.00,496.0,meteohub,2013-01-08 20:47:00,
2013-01-08 13:52:00,46.6,10.8,29.88,NW,315,2.0,14.0,23,0.00,,,0.00,487.0,meteohub,2013-01-08 20:52:00,
2013-01-08 13:57:00,46.9,11.1,29.88,NNW,345,5.0,11.0,23,0.00,,,0.00,480.0,meteohub,2013-01-08 20:57:00,
2013-01-08 14:02:00,47.5,11.5,29.88,NNW,348,6.0,14.0,23,0.00,,,0.00,475.0,meteohub,2013-01-08 21:02:00,
2013-01-08 14:07:00,47.8,11.8,29.88,NNW,330,7.0,14.0,23,0.00,,,0.00,466.0,meteohub,2013-01-08 21:07:00,
2013-01-08 14:12:00,47.3,10.4,29.89,NNE,18,7.0,13.0,22,0.00,,,0.00,431.0,meteohub,2013-01-08 21:12:00,
2013-01-08 14:17:00,47.5,11.5,29.88,North,9,6.0,13.0,23,0.00,,,0.00,366.0,meteohub,2013-01-08 21:17:00,
2013-01-08 14:22:00,46.8,10.9,29.88,North,5,8.0,13.0,23,0.00,,,0.00,424.0,meteohub,2013-01-08 21:22:00,
2013-01-08 14:27:00,46.8,10.9,29.88,NNE,19,5.0,13.0,23,0.00,,,0.00,422.0,meteohub,2013-01-08 21:27:00,
2013-01-08 14:32:00,47.1,11.1,29.89,North,355,6.0,13.0,23,0.00,,,0.00,408.0,meteohub,2013-01-08 21:32:00,
2013-01-08 14:37:00,46.9,11.1,29.89,NE,40,4.0,13.0,23,0.00,,,0.00,396.0,meteohub,2013-01-08 21:37:00,
2013-01-08 14:42:00,46.8,10.9,29.89,NNE,13,4.0,11.0,23,0.00,,,0.00,385.0,meteohub,2013-01-08 21:42:00,
2013-01-08 14:47:00,47.5,11.5,29.89,North,5,3.0,11.0,23,0.00,,,0.00,373.0,meteohub,2013-01-08 21:47:00,
2013-01-08 14:52:00,47.5,11.5,29.89,NNW,346,4.0,9.0,23,0.00,,,0.00,360.0,meteohub,2013-01-08 21:52:00,
2013-01-08 14:57:00,47.1,11.1,29.90,NW,322,3.0,10.0,23,0.00,,,0.00,346.0,meteohub,2013-01-08 21:57:00,
2013-01-08 15:02:00,47.5,11.5,29.90,NNW,340,3.0,10.0,23,0.00,,,0.00,343.0,meteohub,2013-01-08 22:02:00,
2013-01-08 15:07:00,47.7,10.6,29.90,NNE,15,3.0,10.0,22,0.00,,,0.00,322.0,meteohub,2013-01-08 22:07:00,
2013-01-08 15:12:00,47.5,10.6,29.90,NNE,33,5.0,10.0,22,0.00,,,0.00,309.0,meteohub,2013-01-08 22:12:00,
2013-01-08 15:17:00,47.3,11.3,29.90,NE,34,6.0,10.0,23,0.00,,,0.00,295.0,meteohub,2013-01-08 22:17:00,
2013-01-08 15:22:00,47.7,11.7,29.90,North,5,8.0,11.0,23,0.00,,,0.00,278.0,meteohub,2013-01-08 22:22:00,
2013-01-08 15:27:00,47.5,11.5,29.90,NE,42,7.0,13.0,23,0.00,,,0.00,260.0,meteohub,2013-01-08 22:27:00,
2013-01-08 15:32:00,47.1,11.1,29.90,NE,49,6.0,13.0,23,0.00,,,0.00,246.0,meteohub,2013-01-08 22:32:00,
2013-01-08 15:37:00,47.1,11.1,29.91,NNE,28,5.0,13.0,23,0.00,,,0.00,225.0,meteohub,2013-01-08 22:37:00,
2013-01-08 15:42:00,46.9,11.1,29.91,NE,41,8.0,13.0,23,0.00,,,0.00,188.0,meteohub,2013-01-08 22:42:00,
2013-01-08 15:47:00,47.1,11.1,29.91,NNE,28,9.0,13.0,23,0.00,,,0.00,192.0,meteohub,2013-01-08 22:47:00,
2013-01-08 15:52:00,46.9,11.1,29.91,North,5,9.0,13.0,23,0.00,,,0.00,165.0,meteohub,2013-01-08 22:52:00,
2013-01-08 15:57:00,46.8,11.8,29.91,NNE,32,6.0,11.0,24,0.00,,,0.00,120.0,meteohub,2013-01-08 22:57:00,
2013-01-08 16:02:00,46.8,11.8,29.91,NNE,25,9.0,12.0,24,0.00,,,0.00,109.0,meteohub,2013-01-08 23:02:00,
2013-01-08 16:07:00,46.4,11.5,29.92,NNE,19,4.0,12.0,24,0.00,,,0.00,121.0,meteohub,2013-01-08 23:07:00,
2013-01-08 16:12:00,46.2,13.3,29.92,NNE,29,7.0,12.0,26,0.00,,,0.00,95.0,meteohub,2013-01-08 23:12:00,
2013-01-08 16:17:00,45.9,12.0,29.92,NNE,13,8.0,12.0,25,0.00,,,0.00,76.0,meteohub,2013-01-08 23:17:00,
2013-01-08 16:22:00,45.7,12.7,29.92,North,11,7.0,12.0,26,0.00,,,0.00,63.0,meteohub,2013-01-08 23:22:00,
2013-01-08 16:27:00,45.3,13.3,29.93,NE,34,8.0,12.0,27,0.00,,,0.00,56.0,meteohub,2013-01-08 23:27:00,
2013-01-08 16:32:00,45.1,14.0,29.93,NNE,13,5.0,11.0,28,0.00,,,0.00,47.0,meteohub,2013-01-08 23:32:00,
2013-01-08 16:37:00,45.0,13.8,29.93,NNW,342,5.0,11.0,28,0.00,,,0.00,33.0,meteohub,2013-01-08 23:37:00,
2013-01-08 16:42:00,44.6,13.5,29.93,North,5,7.0,11.0,28,0.00,,,0.00,23.0,meteohub,2013-01-08 23:42:00,
2013-01-08 16:47:00,44.2,13.1,29.93,NE,49,10.0,11.0,28,0.00,,,0.00,18.0,meteohub,2013-01-08 23:47:00,
2013-01-08 16:52:00,43.9,13.6,29.94,NNW,336,6.0,12.0,29,0.00,,,0.00,14.0,meteohub,2013-01-08 23:52:00,
2013-01-08 16:57:00,43.5,13.3,29.94,North,355,3.0,12.0,29,0.00,,,0.00,12.0,meteohub,2013-01-08 23:57:00,
2013-01-08 17:02:00,43.2,13.8,29.94,NNW,340,3.0,12.0,30,0.00,,,0.00,11.0,meteohub,2013-01-09 00:02:00,
2013-01-08 17:07:00,42.8,13.5,29.94,NE,40,3.0,9.0,30,0.00,,,0.00,7.0,meteohub,2013-01-09 00:07:00,
2013-01-08 17:12:00,42.4,13.1,29.94,NNE,20,10.0,10.0,30,0.00,,,0.00,5.0,meteohub,2013-01-09 00:12:00,
2013-01-08 17:17:00,42.1,13.6,29.95,North,0,4.0,11.0,31,0.00,,,0.00,0.0,meteohub,2013-01-09 00:17:00,
2013-01-08 17:22:00,41.7,14.0,29.95,NNE,31,7.0,11.0,32,0.00,,,0.00,0.0,meteohub,2013-01-09 00:22:00,
2013-01-08 17:27:00,41.4,13.6,29.95,North,5,7.0,11.0,32,0.00,,,0.00,0.0,meteohub,2013-01-09 00:27:00,
2013-01-08 17:32:00,40.8,13.3,29.95,NNE,13,7.0,10.0,32,0.00,,,0.00,0.0,meteohub,2013-01-09 00:32:00,
2013-01-08 17:37:00,40.6,13.8,29.95,NNE,21,3.0,11.0,33,0.00,,,0.00,0.0,meteohub,2013-01-09 00:37:00,
2013-01-08 17:42:00,40.5,14.4,29.96,NNE,32,5.0,11.0,34,0.00,,,0.00,0.0,meteohub,2013-01-09 00:42:00,
2013-01-08 17:47:00,40.1,14.0,29.96,NE,39,3.0,12.0,34,0.00,,,0.00,0.0,meteohub,2013-01-09 00:47:00,
2013-01-08 17:52:00,39.7,14.4,29.96,North,5,3.0,12.0,35,0.00,,,0.00,0.0,meteohub,2013-01-09 00:52:00,
2013-01-08 17:57:00,39.6,14.2,29.96,NNE,23,7.0,12.0,35,0.00,,,0.00,0.0,meteohub,2013-01-09 00:57:00,
2013-01-08 18:02:00,39.2,13.8,29.96,NNE,28,7.0,14.0,35,0.00,,,0.00,0.0,meteohub,2013-01-09 01:02:00,
2013-01-08 18:07:00,39.0,13.6,29.97,North,5,6.0,14.0,35,0.00,,,0.00,0.0,meteohub,2013-01-09 01:07:00,
2013-01-08 18:12:00,38.8,14.2,29.97,North,5,4.0,13.0,36,0.00,,,0.00,0.0,meteohub,2013-01-09 01:12:00,
2013-01-08 18:17:00,38.7,14.0,29.98,NNE,17,5.0,13.0,36,0.00,,,0.00,0.0,meteohub,2013-01-09 01:17:00,
2013-01-08 18:22:00,38.5,14.5,29.98,NNE,12,9.0,13.0,37,0.00,,,0.00,0.0,meteohub,2013-01-09 01:22:00,
2013-01-08 18:27:00,38.3,14.4,29.98,North,5,7.0,14.0,37,0.00,,,0.00,0.0,meteohub,2013-01-09 01:27:00,
2013-01-08 18:32:00,38.1,14.7,29.98,NNE,30,15.0,15.0,38,0.00,,,0.00,0.0,meteohub,2013-01-09 01:32:00,
2013-01-08 18:37:00,37.8,14.4,29.99,NNE,21,13.0,19.0,38,0.00,,,0.00,0.0,meteohub,2013-01-09 01:37:00,
2013-01-08 18:42:00,37.8,14.4,29.99,NNE,28,10.0,19.0,38,0.00,,,0.00,0.0,meteohub,2013-01-09 01:42:00,
2013-01-08 18:47:00,37.4,14.7,29.99,NNE,24,6.0,19.0,39,0.00,,,0.00,0.0,meteohub,2013-01-09 01:47:00,
2013-01-08 18:52:00,37.0,14.4,30.00,ENE,63,1.0,15.0,39,0.00,,,0.00,0.0,meteohub,2013-01-09 01:52:00,
2013-01-08 18:57:00,36.9,14.2,30.00,NNE,13,4.0,15.0,39,0.00,,,0.00,0.0,meteohub,2013-01-09 01:57:00,
2013-01-08 19:02:00,36.9,14.7,30.01,NNE,23,5.0,15.0,40,0.00,,,0.00,0.0,meteohub,2013-01-09 02:02:00,
2013-01-08 19:07:00,36.7,14.5,30.01,NE,44,5.0,15.0,40,0.00,,,0.00,0.0,meteohub,2013-01-09 02:07:00,
2013-01-08 19:12:00,36.3,14.4,30.01,North,351,5.0,15.0,40,0.00,,,0.00,0.0,meteohub,2013-01-09 02:12:00,
2013-01-08 19:17:00,36.1,14.7,30.01,NE,53,6.0,14.0,41,0.00,,,0.00,0.0,meteohub,2013-01-09 02:17:00,
2013-01-08 19:22:00,36.0,14.5,30.01,NNE,23,5.0,14.0,41,0.00,,,0.00,0.0,meteohub,2013-01-09 02:22:00,
2013-01-08 19:27:00,35.8,14.4,30.01,ENE,64,7.0,14.0,41,0.00,,,0.00,0.0,meteohub,2013-01-09 02:27:00,
2013-01-08 19:32:00,35.6,14.7,30.01,North,355,6.0,14.0,42,0.00,,,0.00,0.0,meteohub,2013-01-09 02:32:00,
2013-01-08 19:37:00,35.4,14.5,30.01,North,0,8.0,14.0,42,0.00,,,0.00,0.0,meteohub,2013-01-09 02:37:00,
2013-01-08 19:42:00,35.2,14.9,30.01,NNE,16,5.0,11.0,43,0.00,,,0.00,0.0,meteohub,2013-01-09 02:42:00,
2013-01-08 19:47:00,35.2,14.9,30.02,NNE,14,10.0,15.0,43,0.00,,,0.00,0.0,meteohub,2013-01-09 02:47:00,
2013-01-08 19:52:00,35.1,14.9,30.03,NNE,26,6.0,15.0,43,0.00,,,0.00,0.0,meteohub,2013-01-09 02:52:00,
2013-01-08 19:57:00,35.1,14.9,30.03,NNW,347,6.0,15.0,43,0.00,,,0.00,0.0,meteohub,2013-01-09 02:57:00,
2013-01-08 20:02:00,35.1,14.9,30.03,NNE,14,7.0,14.0,43,0.00,,,0.00,0.0,meteohub,2013-01-09 03:02:00,
2013-01-08 20:07:00,34.9,14.7,30.03,NNE,26,6.0,15.0,43,0.00,,,0.00,0.0,meteohub,2013-01-09 03:07:00,
2013-01-08 20:17:00,34.9,15.3,30.04,North,11,2.0,15.0,44,0.00,,,0.00,0.0,meteohub,2013-01-09 03:17:00,
2013-01-08 20:22:00,34.9,15.3,30.04,NNE,30,2.0,12.0,44,0.00,,,0.00,0.0,meteohub,2013-01-09 03:22:00,
2013-01-08 20:27:00,34.7,15.1,30.04,NNE,19,10.0,12.0,44,0.00,,,0.00,0.0,meteohub,2013-01-09 03:27:00,
2013-01-08 20:32:00,34.9,15.3,30.05,NNE,15,7.0,13.0,44,0.00,,,0.00,0.0,meteohub,2013-01-09 03:32:00,
2013-01-08 20:37:00,34.7,15.1,30.05,ENE,57,11.0,15.0,44,0.00,,,0.00,0.0,meteohub,2013-01-09 03:37:00,
2013-01-08 20:42:00,34.5,14.9,30.05,NNW,341,10.0,15.0,44,0.00,,,0.00,0.0,meteohub,2013-01-09 03:42:00,
2013-01-08 20:47:00,34.3,14.7,30.05,NE,44,6.0,14.0,44,0.00,,,0.00,0.0,meteohub,2013-01-09 03:47:00,
2013-01-08 20:52:00,34.3,15.3,30.06,North,355,4.0,14.0,45,0.00,,,0.00,0.0,meteohub,2013-01-09 03:52:00,
2013-01-08 21:02:00,34.2,15.1,30.06,North,0,4.0,14.0,45,0.00,,,0.00,0.0,meteohub,2013-01-09 04:02:00,
2013-01-08 21:07:00,34.2,15.1,30.06,NNE,24,10.0,14.0,45,0.00,,,0.00,0.0,meteohub,2013-01-09 04:07:00,
2013-01-08 21:12:00,34.0,14.9,30.07,NNE,13,4.0,15.0,45,0.00,,,0.00,0.0,meteohub,2013-01-09 04:12:00,
2013-01-08 21:17:00,33.8,15.3,30.07,North,11,3.0,15.0,46,0.00,,,0.00,0.0,meteohub,2013-01-09 04:17:00,
2013-01-08 21:22:00,33.6,15.1,30.07,NE,34,3.0,15.0,46,0.00,,,0.00,0.0,meteohub,2013-01-09 04:22:00,
2013-01-08 21:27:00,33.4,15.4,30.08,NE,35,7.0,13.0,47,0.00,,,0.00,0.0,meteohub,2013-01-09 04:27:00,
2013-01-08 21:32:00,33.4,15.4,30.08,NNE,15,12.0,13.0,47,0.00,,,0.00,0.0,meteohub,2013-01-09 04:32:00,
2013-01-08 21:37:00,33.3,15.3,30.08,North,355,7.0,14.0,47,0.00,,,0.00,0.0,meteohub,2013-01-09 04:37:00,
2013-01-08 21:42:00,33.3,15.3,30.09,NNE,20,6.0,14.0,47,0.00,,,0.00,0.0,meteohub,2013-01-09 04:42:00,
2013-01-08 21:47:00,33.1,15.4,30.09,NNE,25,12.0,15.0,48,0.00,,,0.00,0.0,meteohub,2013-01-09 04:47:00,
2013-01-08 21:52:00,32.7,15.3,30.09,NE,40,5.0,15.0,48,0.00,,,0.00,0.0,meteohub,2013-01-09 04:52:00,
2013-01-08 21:57:00,32.5,15.1,30.10,ENE,69,4.0,13.0,48,0.00,,,0.00,0.0,meteohub,2013-01-09 04:57:00,
2013-01-08 22:02:00,32.4,15.3,30.10,NNE,32,10.0,13.0,49,0.00,,,0.00,0.0,meteohub,2013-01-09 05:02:00,
2013-01-08 22:12:00,32.2,15.1,30.10,NNE,20,8.0,11.0,49,0.00,,,0.00,0.0,meteohub,2013-01-09 05:12:00,
2013-01-08 22:17:00,32.2,15.1,30.10,NNE,17,5.0,12.0,49,0.00,,,0.00,0.0,meteohub,2013-01-09 05:17:00,
2013-01-08 22:22:00,31.8,15.3,30.11,North,5,7.0,12.0,50,0.00,,,0.00,0.0,meteohub,2013-01-09 05:22:00,
2013-01-08 22:27:00,31.6,15.1,30.11,NNW,345,7.0,12.0,50,0.00,,,0.00,0.0,meteohub,2013-01-09 05:27:00,
2013-01-08 22:32:00,31.5,14.9,30.11,NNE,25,5.0,12.0,50,0.00,,,0.00,0.0,meteohub,2013-01-09 05:32:00,
2013-01-08 22:37:00,31.5,14.9,30.12,ENE,76,3.0,12.0,50,0.00,,,0.00,0.0,meteohub,2013-01-09 05:37:00,
2013-01-08 22:42:00,31.3,15.3,30.12,NNE,30,5.0,9.0,51,0.00,,,0.00,0.0,meteohub,2013-01-09 05:42:00,
2013-01-08 22:47:00,31.3,14.7,30.12,ENE,64,7.0,10.0,50,0.00,,,0.00,0.0,meteohub,2013-01-09 05:47:00,
2013-01-08 22:52:00,31.3,14.7,30.12,NE,36,4.0,10.0,50,0.00,,,0.00,0.0,meteohub,2013-01-09 05:52:00,
2013-01-08 22:57:00,31.3,14.7,30.12,NE,40,5.0,10.0,50,0.00,,,0.00,0.0,meteohub,2013-01-09 05:57:00,
2013-01-08 23:02:00,31.5,14.9,30.13,NNE,30,7.0,11.0,50,0.00,,,0.00,0.0,meteohub,2013-01-09 06:02:00,
2013-01-08 23:07:00,31.5,14.9,30.13,NE,49,7.0,11.0,50,0.00,,,0.00,0.0,meteohub,2013-01-09 06:07:00,
2013-01-08 23:12:00,31.5,14.9,30.13,NE,35,11.0,14.0,50,0.00,,,0.00,0.0,meteohub,2013-01-09 06:12:00,
2013-01-08 23:17:00,31.5,14.9,30.13,NE,37,8.0,14.0,50,0.00,,,0.00,0.0,meteohub,2013-01-09 06:17:00,
2013-01-08 23:22:00,31.5,14.9,30.14,NNE,17,11.0,14.0,50,0.00,,,0.00,0.0,meteohub,2013-01-09 06:22:00,
2013-01-08 23:27:00,31.3,14.7,30.14,NE,42,5.0,14.0,50,0.00,,,0.00,0.0,meteohub,2013-01-09 06:27:00,
2013-01-08 23:32:00,31.5,14.9,30.14,NE,44,3.0,14.0,50,0.00,,,0.00,0.0,meteohub,2013-01-09 06:32:00,
2013-01-08 23:37:00,31.5,14.9,30.14,NNE,28,7.0,14.0,50,0.00,,,0.00,0.0,meteohub,2013-01-09 06:37:00,
2013-01-08 23:42:00,31.5,14.9,30.14,NE,46,3.0,11.0,50,0.00,,,0.00,0.0,meteohub,2013-01-09 06:42:00,
2013-01-08 23:47:00,31.6,15.1,30.14,NE,52,4.0,13.0,50,0.00,,,0.00,0.0,meteohub,2013-01-09 06:47:00,
2013-01-08 23:52:00,31.6,14.7,30.14,NE,42,6.0,13.0,49,0.00,,,0.00,0.0,meteohub,2013-01-09 06:52:00,
2013-01-08 23:57:00,31.6,14.7,30.14,NNE,26,7.0,13.0,49,0.00,,,0.00,0.0,meteohub,2013-01-09 06:57:00,